| time (UTC) | temp F | wind direction | speed knots | gust knots | rain 1hr in | rain 24hr in | rain mn in | humidity % | barometer mb |
| 20260506061551 | 70 | 232 | 0.9 | 4.3 | 0.00 | 0.00 | 0.00 | 76 | 1006.2 |
| 20260506060106 | 70 | 248 | 0.9 | 3.5 | 0.00 | 0.00 | 0.00 | 75 | 1006.7 |
| 20260506044547 | 70 | 236 | 2.6 | 5.2 | 0.00 | 0.00 | 0.00 | 74 | 1006.9 |
| 20260506043042 | 69 | 194 | 1.7 | 4.3 | 0.00 | 0.00 | 0.00 | 75 | 1007.2 |
| 20260506041550 | 68 | 253 | 1.7 | 4.3 | 0.00 | 0.00 | 0.00 | 76 | 1007.6 |
| 20260506040044 | 68 | 235 | 1.7 | 4.3 | 0.00 | 0.00 | 0.00 | 77 | 1007.5 |
| 20260506034541 | 68 | 165 | 1.7 | 3.5 | 0.00 | 0.00 | 0.00 | 77 | 1007.4 |
| 20260506033049 | 69 | 233 | 0.9 | 4.3 | 0.00 | 0.00 | 0.00 | 75 | 1008.1 |
| 20260506031548 | 68 | 234 | 0.9 | 3.5 | 0.00 | 0.00 | 0.00 | 76 | 1008.0 |
| 20260506030043 | 68 | 235 | 0.9 | 3.5 | 0.00 | 0.00 | 0.00 | 77 | 1007.9 |
| 20260506024546 | 68 | 208 | 0.9 | 3.5 | 0.00 | 0.00 | 0.00 | 78 | 1007.9 |
| 20260506023047 | 68 | 233 | 0.9 | 2.6 | 0.00 | 0.00 | 0.00 | 76 | 1007.9 |
| 20260506021541 | 67 | 212 | 0.9 | 3.5 | 0.00 | 0.00 | 0.00 | 77 | 1007.4 |
| 20260506020040 | 66 | 224 | 0.9 | 2.6 | 0.00 | 0.00 | 0.00 | 79 | 1007.5 |
| 20260506014546 | 65 | 225 | 0.9 | 2.6 | 0.00 | 0.00 | 0.00 | 83 | 1007.5 |
| 20260506013046 | 64 | 235 | 0.9 | 2.6 | 0.00 | 0.00 | 0.00 | 86 | 1007.8 |
| 20260506011544 | 62 | 0 | 0.0 | 0.9 | 0.00 | 0.00 | 0.00 | 89 | 1007.8 |
| 20260506010046 | 62 | 0 | 0.0 | 0.0 | 0.00 | 0.00 | 0.00 | 91 | 1007.9 |
| 20260506004549 | 62 | 0 | 0.0 | 0.0 | 0.00 | 0.00 | 0.00 | 91 | 1007.9 |
| 20260506003047 | 62 | 0 | 0.0 | 0.0 | 0.00 | 0.00 | 0.00 | 90 | 1007.9 |
| 20260506001546 | 62 | 0 | 0.0 | 0.9 | 0.00 | 0.00 | 0.00 | 89 | 1007.9 |
| 20260506000044 | 63 | 0 | 0.0 | 0.9 | 0.00 | 0.00 | 0.00 | 87 | 1008.0 |
| 20260505234548 | 65 | 0 | 0.0 | 0.9 | 0.00 | 0.00 | 0.00 | 83 | 1008.3 |
| 20260505233045 | 67 | 240 | 0.9 | 2.6 | 0.00 | 0.00 | 0.00 | 74 | 1007.8 |
| 20260505231557 | 67 | 232 | 0.9 | 1.7 | 0.00 | 0.00 | 0.00 | 73 | 1007.7 |
| 20260505230055 | 66 | 219 | 0.0 | 1.7 | 0.00 | 0.00 | 0.00 | 75 | 1008.0 |
| 20260505224544 | 65 | 187 | 0.0 | 0.9 | 0.00 | 0.00 | 0.00 | 77 | 1008.0 |
| 20260505223048 | 64 | 220 | 0.0 | 0.9 | 0.00 | 0.00 | 0.00 | 79 | 1008.2 |
| 20260505221548 | 64 | 195 | 0.0 | 0.0 | 0.00 | 0.00 | 0.00 | 81 | 1008.5 |
| 20260505220047 | 63 | 0 | 0.0 | 0.9 | 0.00 | 0.00 | 0.00 | 83 | 1008.6 |
| 20260505214550 | 63 | 0 | 0.0 | 0.9 | 0.00 | 0.00 | 0.00 | 81 | 1008.8 |
| 20260505213056 | 65 | 221 | 1.7 | 4.3 | 0.00 | 0.00 | 0.00 | 75 | 1008.2 |
| 20260505211547 | 68 | 240 | 1.7 | 3.5 | 0.00 | 0.00 | 0.00 | 65 | 1009.6 |
| 20260505210055 | 70 | 219 | 1.7 | 4.3 | 0.00 | 0.00 | 0.00 | 60 | 1009.1 |
| 20260505204554 | 71 | 251 | 0.9 | 5.2 | 0.00 | 0.00 | 0.00 | 59 | 1009.1 |
| 20260505203045 | 72 | 237 | 1.7 | 5.2 | 0.00 | 0.00 | 0.00 | 56 | 1009.0 |
| 20260505201547 | 72 | 228 | 1.7 | 5.2 | 0.00 | 0.00 | 0.00 | 56 | 1009.1 |
| 20260505200044 | 72 | 236 | 1.7 | 5.2 | 0.00 | 0.00 | 0.00 | 55 | 1009.0 |
| 20260505194546 | 72 | 226 | 1.7 | 7.8 | 0.00 | 0.00 | 0.00 | 57 | 1009.4 |
| 20260505193044 | 73 | 187 | 1.7 | 4.3 | 0.00 | 0.00 | 0.00 | 60 | 1009.3 |
| 20260505191607 | 72 | 238 | 2.6 | 5.2 | 0.00 | 0.00 | 0.00 | 58 | 1009.6 |
| 20260505190050 | 71 | 214 | 2.6 | 5.2 | 0.00 | 0.00 | 0.00 | 61 | 1010.0 |
| 20260505184543 | 70 | 249 | 1.7 | 7.0 | 0.00 | 0.00 | 0.00 | 63 | 1009.9 |
| 20260505183049 | 69 | 259 | 0.9 | 2.6 | 0.00 | 0.00 | 0.00 | 67 | 1010.6 |
| 20260505181548 | 68 | 151 | 0.9 | 3.5 | 0.00 | 0.00 | 0.00 | 67 | 1010.3 |
| 20260505180100 | 67 | 167 | 0.0 | 1.7 | 0.00 | 0.00 | 0.00 | 68 | 1010.3 |
| 20260505174552 | 67 | 222 | 0.9 | 3.5 | 0.00 | 0.00 | 0.00 | 66 | 1010.0 |
| 20260505173046 | 67 | 213 | 0.9 | 2.6 | 0.00 | 0.00 | 0.00 | 67 | 1010.2 |
| 20260505171550 | 66 | 231 | 0.9 | 2.6 | 0.00 | 0.00 | 0.00 | 70 | 1010.7 |
| 20260505170046 | 65 | 0 | 0.0 | 0.0 | 0.00 | 0.00 | 0.00 | 73 | 1010.6 |
| 20260505164543 | 65 | 0 | 0.0 | 0.0 | 0.00 | 0.00 | 0.00 | 74 | 1011.7 |
| 20260505163042 | 65 | 0 | 0.0 | 0.0 | 0.00 | 0.00 | 0.00 | 73 | 1012.1 |
| 20260505161550 | 65 | 0 | 0.0 | 0.0 | 0.00 | 0.00 | 0.00 | 72 | 1012.4 |
| 20260505153045 | 66 | 217 | 0.0 | 1.7 | 0.00 | 0.00 | 0.00 | 71 | 1012.8 |
| 20260505151546 | 65 | 243 | 0.9 | 3.5 | 0.00 | 0.00 | 0.00 | 72 | 1012.6 |
| 20260505124557 | 0 | 0.0 | 0.0 | 0.00 | 0.00 | 0.00 | 1011.5 | ||
| 20260505123059 | 0 | 0.0 | 0.0 | 0.00 | 0.00 | 0.00 | 1011.5 | ||
| 20260505121552 | 0 | 0.0 | 0.0 | 0.00 | 0.00 | 0.00 | 1011.5 | ||
| 20260505120051 | 0 | 0.0 | 0.0 | 0.00 | 0.00 | 0.00 | 1011.5 | ||
| 20260505114546 | 0 | 0.0 | 0.0 | 0.00 | 0.00 | 0.00 | 1011.4 | ||
| 20260505113049 | 0 | 0.0 | 0.0 | 0.00 | 0.00 | 0.00 | 1010.9 | ||
| 20260505111543 | 0 | 0.0 | 0.0 | 0.00 | 0.00 | 0.00 | 1010.8 | ||
| 20260505101605 | 56 | 0 | 0.0 | 0.9 | 0.00 | 0.00 | 0.00 | 80 | 1010.6 |
| 20260505100100 | 57 | 0 | 0.0 | 0.0 | 0.00 | 0.00 | 0.00 | 78 | 1010.4 |
| 20260505094549 | 58 | 0 | 0.0 | 0.9 | 0.00 | 0.00 | 0.00 | 77 | 1010.4 |
| 20260505093059 | 59 | 0 | 0.0 | 0.0 | 0.00 | 0.00 | 0.00 | 75 | 1010.3 |
| 20260505091544 | 60 | 0 | 0.0 | 0.0 | 0.00 | 0.00 | 0.00 | 72 | 1010.3 |
| 20260505090045 | 60 | 0 | 0.0 | 0.0 | 0.00 | 0.00 | 0.00 | 71 | 1010.1 |
| 20260505084541 | 60 | 0 | 0.0 | 0.0 | 0.00 | 0.00 | 0.00 | 70 | 1010.2 |
| 20260505083043 | 61 | 224 | 0.0 | 0.9 | 0.00 | 0.00 | 0.00 | 70 | 1010.2 |
| 20260505081601 | 61 | 0 | 0.0 | 0.9 | 0.00 | 0.00 | 0.00 | 69 | 1010.0 |
| 20260505080059 | 61 | 0 | 0.0 | 0.9 | 0.00 | 0.00 | 0.00 | 69 | 1009.8 |
| 20260505074547 | 61 | 0 | 0.0 | 0.9 | 0.00 | 0.00 | 0.00 | 68 | 1010.0 |
| 20260505073047 | 61 | 224 | 0.0 | 0.9 | 0.00 | 0.00 | 0.00 | 68 | 1010.0 |
| 20260505071551 | 61 | 0 | 0.0 | 0.9 | 0.00 | 0.00 | 0.00 | 68 | 1010.2 |